Location: Ku?niki
(51.4449°N, 17.8974°E)
Time: 03:52:30
(UTC+00:00)

Cosmos 2150 Rocket - Pass Details

Date: 18 September 2020
Orbit: 748 x 808 km, 74.0° (Epoch: 22 October)

Event Time Altitude Azimuth Distance (km) Brightness Sun altitude
Rises 18:47:02 0° 194° (SSW) 3,265 7.1 -17.6°
Reaches altitude 10° 18:49:25 10° 191° (SSW) 2,349 6.4 -17.9°
Maximum altitude 18:54:43 67° 110° (ESE) 866 4.0 -18.7°
Drops below altitude 10° 19:00:08 10° 29° (NNE) 2,396 6.6 -19.4°
Sets 19:02:34 0° 27° (NNE) 3,335 7.3 -19.8°
